Regional Weather Roundup
Issued by NWS

Home | Current Version | Previous Version | Graphics & Text | Print | Product List | Glossary On
Versions: 1 2 3 4 5 6 7 8 9 10 11 12 13 14 15 16 17 18 19 20 21 22 23 24 25 26 27 28 29 30 31 32 33 34 35 36 37 38 39 40 41 42 43 44 45 46 47 48 49 50
000
ASUS43 KBIS 202301
RWRND

NORTH DAKOTA REGIONAL WEATHER ROUNDUP
NATIONAL WEATHER SERVICE BISMARCK ND
600 PM CDT MON APR 20 2015

NOTE: "FAIR" INDICATES FEW OR NO CLOUDS BELOW 12,000 FEET WITH NO
SIGNIFICANT WEATHER AND/OR OBSTRUCTIONS TO VISIBILITY.


NDZ001>003-009>011-017-210000-
NORTHWEST NORTH DAKOTA

CITY           SKY/WX    TMP DP  RH WIND       PRES   REMARKS
WILLISTON      MOSUNNY   55  15  20 NW21G29   29.83F
MINOT          SUNNY     50   6  16 NW29G37   29.74S
MINOT AFB      SUNNY     51   7  17 NW24G37   29.73S
$$

NDZ018>021-031>035-040>046-210000-
SOUTHWEST NORTH DAKOTA

CITY           SKY/WX    TMP DP  RH WIND       PRES   REMARKS
BISMARCK       SUNNY     52   4  14 NW31G39   29.75S
DICKINSON      PTSUNNY   49  13  23 N21G28    29.80S
GARRISON         N/A     52   8  17 NW28G40   29.75R
HETTINGER ARPT CLOUDY    49  13  23 NW18G31   29.82S
$$

NDZ004>008-012>016-024-026-027-054-210000-
NORTHEAST NORTH DAKOTA

CITY           SKY/WX    TMP DP  RH WIND       PRES   REMARKS
GRAND FORKS    CLOUDY    37  32  82 NW26G36   29.61S
GRND FRKS AFB  CLOUDY    37  32  81 N22G35    29.61S
DEVILS LAKE    CLOUDY    41  27  56 N26G33    29.67R
$$

NDZ022-023-025-028>030-036>039-047>053-210000-
SOUTHEAST NORTH DAKOTA

CITY           SKY/WX    TMP DP  RH WIND       PRES   REMARKS
FARGO          LGT RAIN  38  33  82 NW24G35   29.62R
JAMESTOWN      CLOUDY    43  24  47 N31G38    29.66S
$$




USA.gov is the U.S. government's official web portal to all federal, state and local government web resources and services.